軌道要素
Epoch 2015 June 27.0 TT = JDT 2457200.5
T 2015 June 25.65406 TT MPCW
q 3.4354298 (2000.0) P Q
n 0.09568741 Peri. 141.06008 +0.23370377 -0.88015097
a 4.7340502 Node 291.80219 +0.74311554 +0.43572716
e 0.2743149 Incl. 26.42396 +0.62702619 -0.18835103
P 10.30
From 44 observations 2016 Jan. 2-17, mean residual 0".5.
|